Location: Ferchesar
(52.6477°N, 12.4298°E)
Time: 08:16:44
(UTC+01:00)

S-56A Canister/Altair - Pass Details

Date: 07 December 2021
Orbit: 633 x 2499 km, 38.9° (Epoch: 19 January)

Event Time Altitude Azimuth Distance (km) Brightness Sun altitude
Rises 02:39:44 0° 259° (W) 4,589 - -47.5°
Reaches altitude 10° 02:43:57 10° 246° (WSW) 3,249 - -47.0°
Maximum altitude 02:49:30 22° 200° (SSW) 2,048 - -46.2°
Drops below altitude 10° 02:53:49 10° 151° (SSE) 2,446 - -45.6°
Sets 02:56:29 0° 135° (SE) 3,198 - -45.3°
